sat.trackr.live / text

‹ back to catalog

STARLINK-33811

NORAD 63504 · 2025-071M

PAYLOAD ACTIVE UNKNOWN

§ Identity

Operator
Country
US
Launch date
2025-04-07
Launch site
AFWTR
Launch vehicle
Mass (kg)
RCS (m²)

Purposes: comms

External: N2YO · Heavens-Above · Gunter

§ Orbital elements

Epoch: 2026-05-25T00:47:19.887648Z

Period
94.11 min
Inclination
53.1565°
Eccentricity
0.0001337
Mean motion
15.30202791 rev/d
Perigee alt
474.3 km
Apogee alt
476.1 km
Semi-major
6,853.3 km
B*
3.3333e-4
RAAN
145.6519°
Arg perigee
83.9292°
Mean anomaly
276.1861°
Rev number
6,439

§ Raw data

STARLINK-338111 63504U 25071M   26145.03286907  .00009527  00000+0  33333-3 0  99962 63504  53.1565 145.6519 0001337  83.9292 276.1861 15.30202791 64396

JSON: /api/v1/satellites/63504 · /tle

For live sub-satellite position, see the globe view (requires WebGL).

§ Visibility from observer

Set your observer location to see the next 7 days of passes ≥ 10°. The values pass through the URL so the page stays shareable.

No JS? Fill the form by hand. The geolocation button needs JavaScript.